Theta_e
314 313 313 313 311 309 307 303 303 318 316 303 301 299 306 309 310 313 311 309 307 305 304 301 302 303 306 311 308 301 301 296 292 297 302 301 295 291 290 284 285 287 286 286
313 313 313 312 311 309 304 298 301 313 314 298 298 304 309 312 310 309 309 307 308 307 302 296 304 305 311 310 309 304 300 292 285 289 294 299 296 298 293 291 288 286 282 286
313 313 312 312 311 309 304 302 300 306 309 306 302 299 303 307 311 311 310 308 307 303 300 301 299 303 308 311 307 312 305 293 291 286 291 296 294 297 298 292 283 287 288 290
312 313 313 312 311 310 307 306 302 301 299 301 301 302 306 306 305 307 307 304 305 302 296 298 299 302 304 307 309 302 296 289 293 296 299 299 296 295 296 292 291 288 290 290
312 313 313 313 311 309 311 303 301 303 302 302 300 299 301 304 306 305 303 301 305 304 297 300 298 302 300 300 301 297 298 291 294 294 300 300 296 298 297 297 295 293 293 290
312 312 313 313 312 309 304 308 308 303 299 299 298 298 301 302 305 309 309 306 304 301 304 305 303 303 303 304 299 297 297 293 291 287 297 296 289 294 297 296 296 294 287 292
310 311 312 313 313 310 303 305 305 300 297 299 301 304 304 302 303 302 307 306 301 305 306 304 301 299 301 302 301 301 296 294 292 288 292 282 293 302 301 297 296 296 296 296
309 309 310 311 313 313 304 304 304 302 296 301 302 302 301 303 303 302 305 308 308 306 303 297 294 295 298 301 301 299 297 293 288 285 285 292 297 300 297 292 292 298 297 298
307 308 309 310 312 313 305 304 307 305 297 296 305 301 302 298 299 301 306 308 307 305 299 295 289 289 296 297 299 301 299 296 291 288 284 283 293 302 302 299 286 301 300 298
305 306 307 309 312 313 308 304 306 304 298 301 303 299 299 304 300 300 303 305 303 302 295 292 290 291 299 293 294 293 293 292 289 287 285 291 299 302 303 287 289 301 301 300
304 305 306 308 310 312 310 305 308 305 305 303 307 307 300 301 300 297 301 301 301 298 293 293 293 292 295 294 297 296 293 289 288 289 285 286 303 301 293 296 298 301 301 300
303 304 306 307 310 311 312 302 310 312 304 304 309 310 311 308 306 301 300 301 302 303 296 296 296 294 294 292 289 298 293 297 293 293 293 299 302 300 301 302 300 301 299 299
302 303 304 306 307 311 310 308 306 306 301 303 303 303 308 309 308 307 299 302 307 305 310 303 299 293 296 291 293 294 297 300 294 295 297 301 303 304 304 303 302 302 301 299
301 302 304 305 306 309 309 307 307 308 306 297 299 311 306 312 310 309 308 306 306 305 308 305 299 295 298 294 296 295 298 297 297 295 298 300 302 305 305 304 304 302 301 300
300 301 302 304 304 307 304 303 305 310 306 298 301 306 308 308 307 308 308 305 302 300 297 298 297 299 297 296 296 294 299 297 294 293 299 299 299 303 305 303 302 301 300 299
301 301 301 302 303 305 303 297 307 309 310 302 295 302 303 306 307 306 306 306 304 301 299 296 298 302 298 293 291 298 301 302 301 299 303 303 304 305 305 303 302 302 301 301
303 301 301 301 303 297 298 297 304 306 306 302 296 294 302 305 304 304 304 304 303 302 298 297 297 298 299 294 291 300 304 304 304 305 305 301 303 302 305 305 304 304 301 301
303 302 302 303 302 300 292 296 303 304 303 303 295 293 295 302 298 299 304 302 302 299 299 298 297 297 296 292 297 303 306 306 305 305 305 304 305 304 305 304 302 299 298 299
304 302 302 295 293 290 295 309 309 303 300 294 292 291 289 302 299 301 301 304 297 300 297 298 298 295 292 296 299 303 306 305 304 305 305 305 304 304 304 302 299 297 297 300
302 295 294 288 294 308 309 304 299 299 299 298 292 293 290 296 297 297 298 301 298 292 296 300 297 296 301 302 303 304 306 306 304 301 300 301 302 303 303 299 298 298 299 300
291 289 290 300 309 298 294 292 292 292 290 294 295 292 290 300 293 298 302 297 299 293 295 295 290 290 300 305 305 307 308 306 305 305 305 306 305 304 300 299 301 301 301 299
295 295 296 297 296 293 290 287 289 290 286 292 289 290 294 295 301 297 300 296 299 293 299 293 288 297 301 304 306 307 306 306 305 305 306 305 305 302 301 301 300 299 300 302
297 293 292 290 287 284 283 281 285 286 291 291 293 292 294 297 300 297 297 293 293 301 293 290 294 298 302 304 306 306 305 307 307 305 306 304 303 303 301 300 301 301 302 302
287 287 279 284 283 285 284 286 286 289 291 292 293 293 293 294 292 294 292 296 296 292 288 289 295 299 302 305 307 307 305 306 307 305 303 302 302 302 303 303 302 302 301 301
285 287 281 280 287 287 289 290 289 291 292 292 293 293 294 291 290 293 292 292 290 290 289 293 298 301 302 304 305 306 306 306 305 303 302 302 303 302 301 303 302 302 302 301
288 286 283 284 284 285 287 287 287 293 297 295 292 291 292 291 291 291 291 290 287 292 296 299 301 302 302 304 305 307 307 306 305 303 302 303 302 302 302 302 302 303 304 302
286 283 286 285 284 284 286 287 290 297 292 291 289 286 286 294 290 290 293 291 294 295 298 301 303 304 304 305 306 306 305 303 303 303 302 302 304 303 302 300 302 302 302 301
Wind_Speed
17 19 21 22 24 28 12 3 3 4 4 4 1 3 5 3 6 1 1 3 5 2 5 4 4 3 2 2 2 3 2 4 2 7 6 4 4 5 6 7 4 1 5 8
17 18 20 21 19 14 3 3 4 5 6 2 3 6 6 6 6 2 3 4 4 2 2 4 5 2 1 4 4 6 3 2 4 10 8 7 3 3 4 4 4 6 7 8
16 18 19 21 21 13 3 3 5 6 5 2 0 4 7 4 1 3 4 4 4 4 2 1 4 4 3 4 3 4 7 3 7 7 6 2 6 6 7 6 5 4 7 5
17 18 19 20 24 23 3 2 3 2 4 5 5 2 4 3 4 3 2 2 4 5 2 1 1 4 3 4 2 3 5 3 3 5 6 5 6 9 9 6 7 7 5 6
17 16 17 19 24 22 4 2 3 5 4 4 5 3 3 3 4 3 4 5 7 5 6 8 4 8 4 4 1 3 2 2 1 4 7 6 7 10 8 6 3 5 6 3
15 15 16 18 20 12 3 4 4 4 5 6 3 2 6 9 10 4 4 10 5 6 1 7 7 6 7 10 10 6 6 4 3 5 5 6 8 6 3 3 1 5 3 4
14 15 16 16 15 10 1 3 2 3 4 2 3 7 6 10 13 5 3 4 5 5 7 6 4 3 6 8 6 7 6 5 4 4 4 2 9 2 3 7 3 4 6 4
13 15 15 16 14 12 1 2 3 1 3 2 4 11 5 9 9 4 3 0 3 5 6 5 5 6 7 4 7 7 6 6 1 2 2 7 7 2 4 5 2 1 6 1
13 13 14 15 15 13 2 2 1 1 3 4 3 4 3 3 4 8 5 6 3 7 4 4 5 5 5 4 3 3 5 5 6 3 3 6 8 2 4 4 3 4 5 1
12 13 13 14 14 13 3 4 1 2 0 4 4 3 3 4 4 2 4 7 6 5 3 3 4 5 3 4 6 5 3 1 6 3 4 8 8 5 3 5 10 6 5 3
12 12 12 13 13 14 5 4 2 2 2 6 3 3 1 5 3 1 5 4 5 3 3 4 4 4 6 4 6 8 9 8 5 3 3 8 8 3 8 9 4 6 5 6
10 12 12 11 12 11 9 2 4 3 3 6 3 9 11 10 13 3 3 3 3 4 2 1 2 2 1 4 5 2 2 9 8 10 10 7 8 7 6 8 6 5 7 4
8 11 12 12 11 11 8 3 4 3 2 6 1 8 6 4 9 4 4 4 4 2 3 2 3 3 4 2 5 1 3 4 3 5 3 5 7 4 6 6 6 6 6 7
6 8 10 11 12 11 9 2 2 1 3 3 6 4 6 10 9 9 9 11 1 3 2 1 2 3 4 4 4 4 6 2 3 3 5 3 5 7 9 9 8 10 7 7
5 7 9 11 11 14 5 3 3 2 2 3 6 15 20 10 6 10 8 8 5 3 1 2 4 3 2 2 2 3 3 6 4 7 8 6 6 5 7 9 9 9 8 5
5 5 7 8 11 13 3 2 0 3 1 3 4 5 7 19 13 8 7 7 4 4 5 5 4 5 4 4 5 7 6 4 8 6 6 8 7 9 7 9 10 7 8 9
10 4 6 7 7 2 3 3 1 3 4 2 5 6 6 8 7 4 2 3 4 5 4 3 4 4 1 3 7 7 6 8 7 5 7 4 4 7 9 11 9 7 8 7
8 6 6 8 8 7 5 4 11 5 2 2 4 6 6 4 3 2 3 3 2 1 5 1 3 2 4 7 8 10 10 10 8 9 8 9 9 8 10 7 9 9 8 7
6 6 11 4 1 2 4 2 8 1 2 3 2 2 4 5 3 2 1 3 3 3 5 6 5 5 7 8 11 11 12 12 10 8 6 8 11 15 11 10 10 10 7 7
5 2 1 2 4 6 10 0 2 1 2 3 3 2 5 4 4 4 4 1 5 4 7 4 8 11 12 10 10 9 11 12 9 7 4 5 6 13 9 11 8 9 8 7
1 1 3 3 4 2 0 4 4 3 3 3 3 7 6 3 2 2 1 4 3 3 5 7 5 5 15 18 18 14 8 9 10 10 8 15 16 11 13 10 10 10 9 6
3 3 3 3 1 2 4 4 2 3 4 4 5 5 7 4 2 4 1 4 3 6 3 4 6 10 9 15 18 19 12 10 9 8 10 11 10 16 15 13 11 9 8 8
3 1 3 3 3 6 6 6 4 4 4 5 4 3 4 2 1 2 3 5 5 6 3 6 5 4 8 10 10 11 10 13 12 9 8 14 17 16 16 13 10 9 8 7
1 3 4 6 6 5 6 6 6 6 5 4 2 3 4 3 3 4 5 4 3 4 5 6 4 6 8 6 7 7 9 11 13 12 18 20 20 15 13 13 11 10 8 7
3 2 6 6 5 4 4 4 3 5 3 2 4 4 4 3 3 4 4 5 6 7 6 5 5 9 6 5 5 7 8 10 10 17 17 18 17 15 11 11 10 9 8 8
4 5 3 5 2 5 4 3 6 3 3 0 2 3 3 5 4 4 8 4 6 3 5 6 7 8 7 7 6 5 6 9 14 17 17 16 15 14 14 10 8 8 9 8
5 5 5 5 4 6 5 4 4 4 4 2 1 4 7 1 3 4 4 2 6 10 11 11 15 10 8 7 5 7 10 12 15 16 15 14 13 13 10 9 6 7 7 8
Wind_Direction
358 357 356 356 358 343 38 11 4 299 41 59 80 179 208 263 302 168 74 109 82 85 21 44 72 117 104 1 94 77 15 138 267 240 271 206 173 174 129 116 262 179 152 266
357 356 354 353 360 23 331 11 268 322 94 169 277 283 282 282 191 61 66 42 86 121 84 61 114 109 278 41 86 158 172 10 14 345 356 357 17 261 164 115 73 207 140 260
360 355 353 350 346 353 131 52 350 324 32 111 65 315 283 279 315 120 102 136 92 78 69 136 158 146 188 87 92 133 89 119 155 190 219 225 294 299 283 136 113 223 217 244
2 355 352 352 344 347 134 64 273 201 325 328 336 297 304 359 360 7 75 51 158 164 182 296 327 86 90 45 131 60 103 182 213 247 254 260 265 272 288 215 209 159 263 137
4 356 356 356 350 343 49 74 44 350 295 304 345 337 286 333 299 212 250 170 215 145 179 177 172 130 138 186 198 146 32 257 251 286 288 294 294 287 278 280 115 131 135 139
4 2 1 2 1 4 41 320 347 105 286 333 8 32 320 303 337 262 267 186 125 87 220 144 158 167 160 165 159 182 150 149 87 269 305 337 324 270 226 124 65 130 132 164
7 10 6 4 7 29 160 266 43 48 279 331 344 338 329 341 314 279 19 61 99 210 133 102 78 89 152 159 178 150 141 123 130 246 6 334 244 249 138 130 128 117 101 117
7 12 10 8 1 359 32 292 57 41 290 329 306 348 322 321 331 297 112 318 161 141 65 63 36 347 359 265 198 181 149 125 115 135 197 283 295 218 170 156 289 69 120 79
8 9 8 7 4 353 356 280 241 121 109 246 338 316 335 333 331 346 2 349 354 74 89 91 147 212 225 273 296 74 77 95 125 137 173 234 239 267 114 94 297 165 126 142
6 8 5 4 359 356 347 287 354 78 124 269 10 85 282 339 340 270 323 330 357 55 93 120 161 235 229 219 184 180 107 39 177 151 227 283 242 155 114 86 239 193 173 153
3 2 2 1 358 354 3 280 297 74 273 283 266 337 12 354 9 20 292 19 345 44 92 134 218 184 236 194 198 182 165 154 200 130 196 275 167 128 159 210 198 181 153 161
358 357 358 360 356 353 354 304 323 312 198 247 235 237 231 197 221 190 308 202 258 211 97 230 106 255 323 187 257 133 148 181 183 169 210 227 194 186 195 161 162 166 148 127
350 354 355 356 354 2 1 295 301 341 313 297 220 253 278 204 216 177 173 275 207 44 185 184 226 219 125 188 243 232 305 159 168 68 271 207 206 230 152 152 140 154 127 137
334 344 350 353 347 345 355 301 297 276 287 261 280 360 305 290 289 211 209 229 9 129 103 246 226 188 160 210 207 160 215 47 152 246 263 118 322 199 154 140 129 124 141 150
314 333 341 350 340 337 318 240 258 270 269 291 305 306 281 272 263 258 201 167 142 132 72 192 232 228 114 265 83 231 176 202 157 229 221 178 218 190 151 137 146 152 144 137
288 308 331 331 339 339 307 344 56 25 349 282 287 282 291 293 280 291 204 163 141 149 156 212 253 245 135 193 217 244 212 190 178 224 229 205 168 168 157 138 155 168 143 128
311 247 298 316 319 344 228 236 233 2 328 252 280 277 263 256 233 180 202 139 172 144 182 206 206 282 107 187 220 233 214 210 197 180 110 61 165 187 165 148 171 128 117 130
304 241 289 304 296 300 298 257 237 155 253 256 260 266 330 336 273 191 180 158 115 240 188 158 187 301 188 236 231 224 215 236 231 190 200 191 182 138 152 145 129 123 133 139
290 290 298 340 97 216 241 95 117 70 197 236 250 280 271 350 319 284 40 140 200 213 191 209 150 216 233 219 205 218 213 199 208 222 216 179 167 166 162 139 147 136 147 141
287 6 221 269 232 152 128 195 155 217 238 243 235 286 266 20 6 326 339 219 219 230 233 148 221 233 233 232 232 236 227 198 182 179 181 172 165 169 156 163 154 142 146 152
21 229 240 285 225 81 257 227 184 181 244 230 221 203 234 260 224 265 335 304 286 273 240 169 239 243 226 229 237 238 210 208 197 180 183 184 178 165 138 142 141 139 149 157
224 233 265 285 267 205 199 221 247 202 240 222 216 225 204 253 158 127 215 240 273 247 252 183 245 238 233 217 224 234 213 198 205 186 190 181 150 144 143 142 143 149 146 141
324 262 245 175 235 218 209 202 193 200 203 235 214 245 156 311 146 125 138 270 251 318 287 256 226 251 226 220 220 219 208 202 201 194 143 134 136 137 141 142 145 140 141 146
188 236 262 211 199 228 198 201 193 219 221 272 208 265 194 198 140 190 196 187 280 257 274 264 265 238 236 222 225 193 202 190 192 152 146 143 142 145 145 145 145 141 145 150
212 239 238 224 242 248 241 244 271 259 235 265 297 253 166 210 226 203 197 197 198 228 238 262 247 256 245 249 208 208 203 184 163 149 148 146 144 146 140 144 145 139 134 141
219 239 255 271 251 274 275 260 264 250 257 141 355 183 165 242 234 168 211 235 234 281 323 304 317 278 247 231 216 208 171 152 148 150 147 142 141 141 143 142 140 143 144 145
224 236 217 258 267 242 255 228 273 306 10 223 71 213 202 232 231 247 246 338 327 316 311 304 305 301 286 237 195 147 136 133 134 134 136 133 133 131 126 133 145 131 122 122